Stündliche Wetter Çay

Heute, 24 Januar, Sonntag

Zeit Temperatur Niederschläge Wind Luftdruck Luftfeuchtigkeit
00:00 +2°C° 0 mm 2 m/S 670 mmHg 85%
01:00 +1°C° 0 mm 2 m/S 670 mmHg 86%
02:00 +1°C° 0 mm 2 m/S 670 mmHg 87%
03:00 +1°C° 0 mm 2 m/S 670 mmHg 87%
04:00 +1°C° 0 mm 2 m/S 670 mmHg 87%
05:00 +1°C° 0 mm 2 m/S 670 mmHg 88%
06:00 +2°C° 0 mm 2 m/S 670 mmHg 86%
07:00 +2°C° 0 mm 2 m/S 671 mmHg 85%
08:00 +2°C° 0 mm 2 m/S 671 mmHg 83%
09:00 +3°C° 0 mm 3 m/S 671 mmHg 78%
10:00 +4°C° 0 mm 4 m/S 671 mmHg 72%
11:00 +5°C° 0 mm 5 m/S 671 mmHg 67%
12:00 +6°C° 0 mm 5 m/S 671 mmHg 67%
13:00 +6°C° 0 mm 5 m/S 670 mmHg 66%
14:00 +7°C° 0 mm 5 m/S 670 mmHg 65%
15:00 +6°C° 0 mm 4 m/S 670 mmHg 70%
16:00 +5°C° 0 mm 4 m/S 670 mmHg 75%
17:00 +4°C° 0 mm 3 m/S 670 mmHg 80%
18:00 +3°C° 0 mm 3 m/S 670 mmHg 82%
19:00 +3°C° 0 mm 3 m/S 670 mmHg 84%
20:00 +4°C° 0 mm 2 m/S 670 mmHg 86%
21:00 +3°C° 0 mm 2 m/S 670 mmHg 87%
22:00 +2°C° 0 mm 3 m/S 670 mmHg 88%
23:00 +2°C° 0 mm 3 m/S 670 mmHg 88%

Morgen, 25 Januar, Montag

Zeit Temperatur Niederschläge Wind Luftdruck Luftfeuchtigkeit
00:00 +2°C° 0 mm 3 m/S 670 mmHg 88%
01:00 +2°C° 0 mm 3 m/S 670 mmHg 88%
02:00 +3°C° 0 mm 2 m/S 669 mmHg 88%
03:00 +2°C° 0 mm 3 m/S 669 mmHg 89%
04:00 +2°C° 0 mm 3 m/S 669 mmHg 89%
05:00 +3°C° 0 mm 3 m/S 668 mmHg 90%
06:00 +3°C° 0 mm 3 m/S 668 mmHg 89%
07:00 +3°C° 0 mm 3 m/S 668 mmHg 89%
08:00 +3°C° 0 mm 3 m/S 668 mmHg 89%
09:00 +4°C° 0 mm 6 m/S 668 mmHg 81%
10:00 +5°C° 0 mm 8 m/S 668 mmHg 73%
11:00 +7°C° 0 mm 11 m/S 668 mmHg 65%
12:00 +7°C° 0 mm 11 m/S 668 mmHg 66%
13:00 +7°C° 0 mm 10 m/S 668 mmHg 67%
14:00 +7°C° 0 mm 10 m/S 668 mmHg 68%
15:00 +6°C° 0 mm 9 m/S 668 mmHg 72%
16:00 +5°C° 0 mm 8 m/S 668 mmHg 75%
17:00 +5°C° 0 mm 6 m/S 667 mmHg 79%
18:00 +4°C° 0 mm 6 m/S 668 mmHg 81%
19:00 +5°C° 0 mm 5 m/S 668 mmHg 83%
20:00 +3°C° 0 mm 5 m/S 668 mmHg 85%
21:00 +4°C° 0 mm 4 m/S 668 mmHg 85%
22:00 +4°C° 0 mm 4 m/S 668 mmHg 86%
23:00 +4°C° 0 mm 4 m/S 668 mmHg 86%

übermorgen, 26 Januar, Dienstag

Zeit Temperatur Niederschläge Wind Luftdruck Luftfeuchtigkeit
00:00 +4°C° 0 mm 4 m/S 668 mmHg 87%
01:00 +4°C° 0 mm 4 m/S 668 mmHg 87%
02:00 +4°C° 0 mm 4 m/S 668 mmHg 88%
03:00 +4°C° 0 mm 4 m/S 668 mmHg 87%
04:00 +3°C° 0 mm 5 m/S 667 mmHg 86%
05:00 +3°C° 0 mm 5 m/S 667 mmHg 85%
06:00 +3°C° 0 mm 5 m/S 668 mmHg 85%
07:00 +4°C° 0 mm 4 m/S 668 mmHg 84%
08:00 +4°C° 0 mm 4 m/S 668 mmHg 84%
09:00 +6°C° 0 mm 5 m/S 668 mmHg 80%
10:00 +7°C° 0 mm 5 m/S 668 mmHg 75%
11:00 +8°C° 0 mm 6 m/S 668 mmHg 71%
12:00 +8°C° 0.1 mm 6 m/S 668 mmHg 69%
13:00 +8°C° 0.1 mm 6 m/S 668 mmHg 67%
14:00 +9°C° 0.1 mm 6 m/S 668 mmHg 66%
15:00 +8°C° 0.1 mm 5 m/S 667 mmHg 71%
16:00 +7°C° 0.1 mm 4 m/S 667 mmHg 75%
17:00 +7°C° 0.1 mm 3 m/S 667 mmHg 80%
18:00 +7°C° 0.1 mm 3 m/S 667 mmHg 83%
19:00 +7°C° 0.1 mm 3 m/S 667 mmHg 85%
20:00 +6°C° 0.1 mm 2 m/S 667 mmHg 88%
21:00 +5°C° 0.1 mm 3 m/S 666 mmHg 88%
22:00 +5°C° 0.1 mm 3 m/S 666 mmHg 89%
23:00 +5°C° 0.1 mm 3 m/S 666 mmHg 89%

27 Januar, Mittwoch

Zeit Temperatur Niederschläge Wind Luftdruck Luftfeuchtigkeit
00:00 +6°C° 0.1 mm 2 m/S 665 mmHg 89%
01:00 +5°C° 0.1 mm 2 m/S 665 mmHg 90%
02:00 +5°C° 0.1 mm 2 m/S 665 mmHg 91%
03:00 +5°C° 0.7 mm 2 m/S 664 mmHg 92%
04:00 +5°C° 0.7 mm 2 m/S 664 mmHg 94%
05:00 +4°C° 0.7 mm 2 m/S 663 mmHg 96%
06:00 +5°C° 2.3 mm 1 m/S 663 mmHg 96%
07:00 +4°C° 2.3 mm 1 m/S 662 mmHg 97%
08:00 +4°C° 2.3 mm 1 m/S 662 mmHg 97%
09:00 +4°C° 2.6 mm 1 m/S 661 mmHg 97%
10:00 +3°C° 2.6 mm 1 m/S 661 mmHg 97%
11:00 +2°C° 2.6 mm 2 m/S 660 mmHg 98%
12:00 +2°C° 3.1 mm 2 m/S 659 mmHg 98%
13:00 0°C° 3.1 mm 3 m/S 659 mmHg 98%
14:00 -1°C° 3.1 mm 3 m/S 658 mmHg 98%
15:00 -2°C° 1.9 mm 4 m/S 658 mmHg 97%
16:00 -3°C° 1.9 mm 4 m/S 658 mmHg 96%
17:00 -4°C° 1.9 mm 4 m/S 658 mmHg 94%
18:00 -4°C° 0.3 mm 4 m/S 659 mmHg 94%
19:00 -5°C° 0.3 mm 4 m/S 660 mmHg 95%
20:00 -5°C° 0.3 mm 4 m/S 660 mmHg 95%
21:00 -7°C° 0.1 mm 4 m/S 661 mmHg 94%
22:00 -6°C° 0.1 mm 3 m/S 661 mmHg 94%
23:00 -7°C° 0.1 mm 3 m/S 662 mmHg 94%

28 Januar, Donnerstag

Zeit Temperatur Niederschläge Wind Luftdruck Luftfeuchtigkeit
00:00 -7°C° 0.1 mm 3 m/S 662 mmHg 94%
01:00 -7°C° 0.1 mm 3 m/S 662 mmHg 94%
02:00 -6°C° 0.1 mm 2 m/S 663 mmHg 94%
03:00 -6°C° 0.1 mm 2 m/S 663 mmHg 94%
04:00 -7°C° 0.1 mm 2 m/S 663 mmHg 94%
05:00 -7°C° 0.1 mm 2 m/S 664 mmHg 94%
06:00 -7°C° 0.1 mm 2 m/S 664 mmHg 93%
07:00 -7°C° 0.1 mm 2 m/S 664 mmHg 92%
08:00 -7°C° 0.1 mm 2 m/S 665 mmHg 92%
09:00 -6°C° 0 mm 2 m/S 665 mmHg 88%
10:00 -5°C° 0 mm 2 m/S 665 mmHg 84%
11:00 -5°C° 0 mm 3 m/S 666 mmHg 80%
12:00 -5°C° 0 mm 3 m/S 666 mmHg 80%
13:00 -5°C° 0 mm 3 m/S 666 mmHg 79%
14:00 -4°C° 0 mm 3 m/S 665 mmHg 79%
15:00 -5°C° 0.1 mm 3 m/S 665 mmHg 81%
16:00 -6°C° 0.1 mm 2 m/S 665 mmHg 83%
17:00 -7°C° 0.1 mm 2 m/S 665 mmHg 85%
18:00 -8°C° 0 mm 2 m/S 666 mmHg 85%
19:00 -8°C° 0 mm 2 m/S 666 mmHg 85%
20:00 -8°C° 0 mm 1 m/S 666 mmHg 85%

29 Januar, Freitag

Zeit Temperatur Niederschläge Wind Luftdruck Luftfeuchtigkeit
Mehr zeigen

Wir brauchen deine Erlaubnis

Meteoprog und unser Service Anbieter werden persönliche Daten aufbewahren, so wie Cookies, Geräte Bezeichnung oder ähnliche Technologien von deinem Gerät und Prozess, so wie Persönliche Daten Inhalte und Werbungen, genauso wie social Media und den Verkehr zu analysieren.

  • Aufbewahrung und/oder Zugang zu deiner Geräte Informationen.

    Cookies, Geräte Bezeichnung oder andere Informationen, können aufbewahrt oder Zugang zu deinem Gerät erhalten, für den Grund, der oben angegeben wird.

  • Personalisierte Werbung und Inhalte, Messungen, Einblick in das Publikum und Produkt Entwicklung.

    Werbungen und Inhalte können personalisiert werden, basierend auf ein Profil. Mehr Daten können besser personalisierte Werbungen und Inhalte hinzufügen. Werbung und Inhalte können gezeigt und gemessen werden. Einblicke über das Publikum, welche die Werbung gesehen haben und den Inhalt, können abgeleitet werden. So wie Daten können genutzt werden, um es zu verbessern oder die Benutzer Erfahrung zu verbessern das System und die Software.

Wenn du “Ich stimme zu” klickst, erlaubst du uns, die Cookies zu benutzen die Geräte Bezeichnung, den Web oder ähnliche Technologien zu benutzen. Deine Settings, können in deinem Gerät bei deinem Browser geändert werden.

Für den bestimmten Zweck, berechtigten Interessen beruhen darauf, mehr als auf den Inhalt. Du kannst mehr darüber in unseren Privaten und Cookie Politik lesen.